Regional Weather Roundup
Issued by NWS

Home | Current Version | Previous Version | Graphics & Text | Print | Product List | Glossary On
Versions: 1 2 3 4 5 6 7 8 9 10 11 12 13 14 15 16 17 18 19 20 21 22 23 24 25 26 27 28 29 30 31 32 33 34 35 36 37 38 39 40 41 42 43 44 45 46 47 48 49 50
000
ASUS43 KOAX 010202
RWRNE

WEATHER ROUNDUP FOR NEBRASKA
NATIONAL WEATHER SERVICE OMAHA NE
900 PM CDT TUE JUN 30 2015

NOTES: SATELLITE DATA IS BEING USED TO AUGMENT CLOUD COVER ABOVE
       12000 FEET.
       "FAIR" INDICATES FEW OR NO CLOUDS BELOW 12,000 FEET WITH NO
       SIGNIFICANT WEATHER AND/OR OBSTRUCTIONS TO VISIBILITY.

  * THESE STATIONS DO NOT REPORT WEATHER SUCH AS RAIN...SNOW OR FOG.

NEZ001>004-019>022-054>056-010300-
NEBRASKA PANHANDLE

CITY           SKY/WX    TMP DP  RH WIND       PRES   REMARKS
SCOTTSBLUFF    PTCLDY    85  60  42 N9        29.93R
ALLIANCE       PTCLDY    81  63  54 N10G21    29.92R
CHADRON        MOCLDY    80  70  71 NE8       29.89R
SIDNEY         PTCLDY    78  63  59 W5        29.97R
$$

NEZ057>060-069>072-079>082-010300-
SOUTHWEST NEBRASKA

CITY           SKY/WX    TMP DP  RH WIND       PRES   REMARKS
NORTH PLATTE   PTCLDY    82  70  66 E5        29.83S
IMPERIAL       PTCLDY    86  65  49 S3        29.87R
MCCOOK         PTCLDY    91  58  32 E6        29.82S HX  90
$$

NEZ005>010-023>029-035>040-094-010300-
NORTH CENTRAL NEBRASKA

CITY           SKY/WX    TMP DP  RH WIND       PRES   REMARKS
VALENTINE      CLOUDY    74  65  73 E12       29.87S
BROKEN BOW     MOCLDY    80  71  74 E9        29.85R
ORD            CLOUDY    74  62  66 E10       29.85R
$$

NEZ041-046>049-061>064-073>077-083>087-010300-
SOUTH CENTRAL NEBRASKA

CITY           SKY/WX    TMP DP  RH WIND       PRES   REMARKS
GRAND ISLAND   CLOUDY    77  65  66 E13       29.86R
HASTINGS       CLOUDY    80  69  69 SE15G22   29.83S
KEARNEY *      CLOUDY    82  66  57 E12       29.83R
$$

NEZ011>018-030>034-042>045-010300-
NORTHEAST NEBRASKA

CITY           SKY/WX    TMP DP  RH WIND       PRES   REMARKS
NORFOLK        CLOUDY    70  64  81 E7        29.89F
COLUMBUS *     CLOUDY   N/A N/A N/A E9        29.87F
TEKAMAH        CLOUDY    72  69  90 S5        29.88S
$$

NEZ050>053-065>068-078-088>093-010300-
SOUTHEAST NEBRASKA

CITY           SKY/WX    TMP DP  RH WIND       PRES   REMARKS
LINCOLN        LGT RAIN  76  65  68 NE7       29.89R
OMAHA EPPLEY   CLOUDY    73  67  81 CALM      29.89S
FALLS CITY     CLOUDY    76  67  73 SE7       29.86S
$$

NEZ044-045-051>053-067-010300-
OMAHA AREA

CITY           SKY/WX    TMP DP  RH WIND       PRES   REMARKS
OMAHA EPPLEY   CLOUDY    73  67  81 CALM      29.89S
OFFUTT AFB     LGT RAIN  71  66  83 E3        29.88S
$$



USA.gov is the U.S. government's official web portal to all federal, state and local government web resources and services.